This demonstration page uses our WeatherBlox Daily Observations layout. Learn more.

Left ArrowRight Arrow

41.86663, -103.66717

Hourly Observations for May 15, 2021

Temp ( °F °C ) Dew Point ( °F °C ) Humidity (%) Winds ( mph kmh ) Pressure ( in mb ) Visibility ( mi km ) Precip ( " mm )
12:53 am 00:53 Mostly Cloudy 50 10 44 6.7 80 80 N N/A 30.01 1016 10 16 N/A
1:53 am 01:53 Mostly Cloudy 47 8.3 43 6.1 86 86 NNW 6 9 30.00 1016 10 16 N/A
2:53 am 02:53 Partly Cloudy 46 7.8 41 5 83 83 N 6 9 29.99 1016 10 16 N/A
3:53 am 03:53 Cloudy 47 8.3 43 6.1 86 86 N N/A 30.01 1016 10 16 N/A
4:53 am 04:53 Cloudy 48 8.9 43 6.1 83 83 N N/A 30.02 1017 10 16 N/A
5:53 am 05:53 Mostly Cloudy 48 8.9 44 6.7 86 86 NE 6 9 30.01 1016 10 16 N/A
6:53 am 06:53 Cloudy 51 10.6 45 7.2 80 80 NE 3 6 30.01 1016 10 16 N/A
7:53 am 07:53 Mostly Cloudy 54 12.2 45 7.2 72 72 SE 5 7 30.01 1016 10 16 N/A
8:53 am 08:53 Sunny 58 14.4 48 8.9 70 70 S 5 7 30.01 1016 10 16 N/A
9:53 am 09:53 Mostly Sunny 60 15.6 49 9.4 67 67 VRB 3 6 30.00 1016 10 16 N/A
10:53 am 10:53 Cloudy 63 17.2 48 8.9 58 58 SE 7 11 30.00 1016 10 16 N/A
11:53 am 11:53 Cloudy 64 17.8 49 9.4 58 58 SE 8 13 29.98 1015 10 16 N/A
12:53 pm 12:53 Cloudy 68 20 45 7.2 44 44 ESE 14 22 29.96 1014 10 16 N/A
1:53 pm 13:53 Cloudy 67 19.4 44 6.7 44 44 ESE 10 17 29.95 1014 10 16 N/A
2:53 pm 14:53 Cloudy 67 19.4 44 6.7 44 44 ESE 14 22 29.93 1014 10 16 N/A
3:53 pm 15:53 Cloudy 66 18.9 48 8.9 52 52 SSE 7 11 29.93 1014 10 16 N/A
4:53 pm 16:53 Cloudy 66 18.9 50 10 56 56 SSE 10 17 29.93 1013 10 16 N/A
5:53 pm 17:53 Cloudy 65 18.3 51 10.6 61 61 SE 7 11 29.91 1013 10 16 N/A
6:53 pm 18:53 Sunny 65 18.3 52 11.1 63 63 ESE 8 13 29.88 1012 10 16 N/A
7:53 pm 19:53 Mostly Sunny 61 16.1 52 11.1 72 72 ESE 7 11 29.89 1012 10 16 N/A
8:53 pm 20:53 Partly Cloudy 59 15 52 11.1 78 78 E 7 11 29.89 1012 10 16 N/A
9:53 pm 21:53 Clear 58 14.4 49 9.4 72 72 E 14 22 29.87 1012 10 16 N/A
10:53 pm 22:53 Clear 56 13.3 50 10 81 81 E 12 19 29.88 1012 10 16 N/A
11:25 pm 23:25 Cloudy 57 13.9 50 10 78 78 ESE 10 17 29.87 1011 10 16 N/A
11:53 pm 23:53 Cloudy 57 13.9 51 10.6 81 81 E 13 20 29.90 1012 10 16 N/A

Powered by AerisWeather